Theta_e
354 354 352 350 353 354 352 352 355 352 348 349 351 351 350 350 349 349 349 349 350 348 346 349 348 340 335 337 337 336 334 332 333 334 334 333 331 328 326 325 324 325 327 330 332 337 342 346 347 348 348 345 344 347 348 347 344 334 324 323 323 322 320 320 321 321 320 321 321 320 321 320 321 323
354 354 355 354 354 355 353 354 357 353 345 346 349 351 350 348 349 351 351 350 351 349 347 349 351 344 336 339 345 345 340 335 335 335 333 332 330 327 326 325 325 324 325 330 332 337 342 345 346 348 348 346 346 347 348 346 342 333 324 323 322 320 320 320 321 321 321 321 321 321 321 320 320 321
352 350 351 352 352 355 355 355 357 355 349 347 349 351 350 347 348 350 351 352 351 350 350 350 351 350 342 337 340 344 344 340 336 335 333 331 329 329 327 324 325 326 324 327 332 337 342 345 345 347 347 347 347 348 347 343 339 331 324 322 321 320 320 321 321 321 321 321 321 321 321 321 320 319
352 348 346 348 349 352 354 354 355 355 352 349 349 350 349 346 347 347 348 352 353 352 352 349 351 352 346 339 336 337 344 346 338 333 333 330 329 334 336 329 324 326 324 324 331 337 343 345 344 345 347 347 348 349 345 339 335 330 323 321 321 320 320 321 321 321 322 322 322 321 321 321 320 319
351 347 344 345 346 347 349 352 354 354 352 352 351 351 349 349 351 349 347 351 354 354 352 349 351 349 342 344 342 334 340 345 338 333 332 330 328 330 339 341 331 325 326 323 328 337 343 345 344 344 346 347 348 349 343 335 330 328 323 320 321 321 321 321 321 321 322 322 322 322 322 321 320 319
346 345 342 342 344 345 346 346 349 352 352 352 353 353 353 353 354 351 347 348 351 354 353 350 351 349 341 343 344 334 335 338 334 332 331 333 332 325 335 348 339 325 325 325 327 337 344 345 345 343 345 346 348 348 344 333 327 326 323 321 321 321 321 321 321 321 322 322 322 323 322 321 320 319
342 342 341 341 344 349 349 345 346 350 350 350 351 352 352 353 354 353 349 345 346 351 353 351 350 352 347 342 340 335 333 333 332 333 331 332 335 327 331 348 347 331 326 325 326 335 343 345 345 344 344 346 347 348 346 336 327 324 323 321 321 321 321 322 322 322 322 322 322 322 322 321 319 319
343 343 342 342 344 348 348 343 343 347 348 347 347 347 348 347 347 350 349 346 345 346 349 349 347 347 343 337 336 335 334 334 333 334 331 329 333 331 333 348 354 342 330 327 326 333 341 345 345 344 344 345 346 347 347 341 330 323 322 322 321 321 322 322 322 322 322 323 323 323 322 320 319 319
340 340 341 342 342 344 343 340 342 347 347 346 345 346 348 345 342 343 342 343 344 342 343 345 343 340 338 338 337 335 334 335 336 336 335 332 332 330 332 345 352 346 337 330 326 330 338 342 346 346 345 345 345 346 347 345 336 326 322 322 321 321 322 322 323 323 323 323 322 323 321 320 319 319
333 333 334 336 338 339 339 340 344 345 343 341 343 344 344 344 342 339 338 337 338 338 338 339 341 343 344 343 339 335 333 334 336 337 337 340 343 338 333 337 345 349 350 343 332 330 333 336 341 346 347 346 346 345 346 346 342 332 324 322 322 322 322 322 323 323 323 323 323 323 322 320 319 319
332 331 331 332 334 334 334 335 340 342 340 338 339 338 336 337 338 339 343 342 339 341 343 344 347 350 350 347 342 338 334 330 331 333 336 343 348 345 337 332 335 342 347 346 342 339 337 335 336 341 345 347 346 346 345 346 345 338 328 323 323 322 322 322 323 323 322 323 323 323 322 321 319 319
333 333 334 335 337 337 333 331 334 338 341 339 339 338 335 334 334 338 346 349 345 345 348 349 349 349 348 345 342 340 337 334 337 341 342 342 343 345 344 340 337 335 334 343 351 350 345 340 334 332 336 341 345 346 345 344 345 342 333 325 322 322 323 323 323 323 323 322 323 323 322 321 319 318
332 331 334 338 340 338 331 328 328 332 335 336 338 339 336 333 332 333 338 343 342 342 344 346 346 345 346 345 346 348 348 346 345 343 339 337 341 349 353 349 345 340 336 345 352 351 348 346 343 340 339 340 344 346 344 343 344 345 339 329 323 322 323 323 323 323 323 322 323 323 322 321 320 319
331 332 334 337 336 331 326 325 326 328 329 330 332 335 333 333 333 333 334 335 336 338 339 342 345 346 347 347 347 350 350 348 348 346 345 346 349 352 354 353 351 346 342 347 347 342 345 348 349 350 348 345 346 346 345 344 344 345 343 334 326 323 322 323 323 323 323 323 323 323 322 321 321 319
329 331 332 334 333 329 324 324 324 324 326 327 328 330 331 331 332 335 336 336 336 337 339 342 345 346 347 346 342 343 343 344 348 350 349 348 350 352 354 355 355 349 344 345 342 338 343 345 346 351 351 348 347 347 346 345 344 345 344 338 330 324 322 323 323 323 323 323 323 323 322 321 321 320
326 328 328 331 336 336 330 325 324 324 323 324 326 327 329 331 331 331 333 334 336 338 341 345 347 346 347 347 343 341 341 342 345 346 342 340 342 347 352 354 354 351 345 342 340 342 345 343 342 350 352 347 344 343 344 344 344 345 345 340 333 326 323 323 323 323 323 323 322 323 322 321 321 320
326 326 326 327 330 333 330 325 323 324 323 323 324 325 327 329 330 330 330 330 332 334 337 341 342 340 341 342 339 338 337 335 334 334 335 339 342 345 347 349 351 350 346 342 342 343 344 344 345 351 352 346 340 339 341 344 344 344 344 341 335 328 323 323 323 323 323 323 323 322 321 321 321 320
326 325 325 325 324 326 326 325 324 324 324 324 324 324 325 327 328 330 331 330 330 330 331 333 333 332 333 333 331 330 330 329 329 330 333 338 344 346 345 344 344 343 340 340 341 339 340 346 351 351 350 346 340 335 339 343 344 344 345 342 336 328 324 323 323 323 323 322 322 322 322 321 321 320
326 325 326 326 325 325 324 325 325 324 324 325 325 324 325 325 326 328 329 330 330 331 330 330 330 330 330 331 330 330 332 332 332 335 337 337 340 343 342 339 340 340 337 336 337 335 338 346 352 351 350 348 343 336 337 342 344 344 344 342 336 327 323 323 323 323 323 323 322 322 322 321 321 320
329 329 329 328 327 327 326 326 325 325 326 326 327 326 326 325 326 328 330 330 329 330 331 331 331 331 332 334 332 331 335 337 335 337 341 339 339 340 340 340 343 345 344 343 341 339 338 344 350 351 351 349 346 342 339 339 343 345 344 342 335 327 323 323 323 323 323 323 322 322 321 321 321 319
334 333 333 331 330 329 328 327 326 326 327 328 328 328 328 327 327 329 334 337 333 330 331 332 333 333 332 333 333 330 331 333 334 336 338 337 338 339 342 345 348 349 348 347 348 346 343 344 348 352 351 348 347 346 344 340 342 345 344 342 336 327 323 323 323 323 323 322 322 322 321 321 320 319
339 337 336 334 334 332 330 330 330 328 328 329 330 330 329 329 328 327 333 342 343 338 336 336 335 335 333 332 332 331 330 331 332 334 334 333 335 339 343 347 350 349 347 347 349 349 346 347 350 352 351 349 347 348 347 343 342 344 345 343 337 329 324 323 323 323 323 322 322 322 321 320 320 319
343 341 339 336 335 334 332 332 332 331 330 330 330 331 331 331 329 327 331 340 346 348 348 346 342 338 335 334 332 331 330 331 332 333 332 332 335 337 339 344 349 350 348 347 348 347 347 349 351 351 351 350 349 348 348 346 345 345 345 343 338 331 325 323 323 323 323 322 322 322 321 320 320 319
349 346 342 339 335 333 333 333 333 333 332 331 331 332 333 331 329 329 333 341 346 350 352 352 350 344 339 337 336 333 331 331 331 332 332 332 334 335 337 343 349 350 349 348 347 346 346 349 350 351 350 350 350 349 349 348 346 346 345 343 339 333 326 323 323 323 323 322 322 322 321 320 320 320
354 351 347 341 336 333 333 332 333 334 332 332 332 332 332 331 329 330 336 344 350 352 352 351 350 349 346 342 340 336 333 330 329 329 331 332 334 335 337 344 350 350 349 349 346 343 344 347 349 351 351 350 349 348 348 347 346 345 345 342 337 332 326 323 323 323 322 322 322 321 321 320 320 320
356 353 349 343 338 336 334 332 333 335 335 335 335 333 331 330 331 332 335 340 346 351 353 353 351 351 351 349 348 346 342 337 333 330 330 331 333 335 337 344 349 349 349 350 346 343 343 345 346 350 352 351 351 349 347 347 346 345 344 342 337 331 326 323 323 323 322 322 322 321 321 321 320 320
358 356 353 348 343 338 336 334 334 335 337 338 336 334 332 332 333 335 338 339 341 345 351 353 354 354 353 352 353 354 350 346 344 342 338 335 336 336 337 342 345 345 344 347 346 344 344 344 345 347 348 350 351 350 348 346 346 345 343 342 339 333 328 325 323 323 322 321 321 321 321 321 320 320
358 358 357 355 351 345 341 339 338 338 339 339 337 335 335 335 336 339 341 341 341 343 347 349 351 352 352 352 352 350 348 346 346 346 345 344 344 345 344 344 345 344 343 345 346 346 345 345 346 346 347 348 350 350 348 346 345 344 343 341 337 333 330 327 324 323 322 321 321 321 321 320 320 320
358 358 358 357 357 354 350 347 345 344 341 340 340 338 337 338 340 342 342 342 342 344 345 348 349 348 349 349 346 342 343 344 344 344 345 346 347 348 347 346 347 347 347 347 347 347 347 346 346 347 348 350 350 349 347 346 346 344 342 340 336 333 331 328 324 323 322 322 321 321 321 320 320 320
358 358 358 358 358 358 357 355 353 350 346 343 342 341 340 340 341 342 343 343 344 344 345 347 348 348 349 350 347 344 345 346 345 345 345 346 346 346 346 347 348 349 349 348 347 348 348 348 347 347 349 351 351 350 347 346 346 344 342 340 336 333 331 329 324 322 322 322 321 321 321 321 320 320
358 358 358 358 358 358 358 358 357 355 351 347 345 343 342 342 342 342 344 344 345 345 346 347 348 348 350 351 351 350 348 347 346 346 347 348 348 347 348 351 351 350 349 349 348 349 350 351 350 350 350 351 351 351 348 347 346 345 342 340 338 335 331 329 325 323 322 322 321 322 321 321 321 321
357 357 357 357 358 358 358 358 358 356 353 349 346 345 344 342 342 343 345 346 346 346 347 347 348 349 350 351 351 350 349 348 347 347 348 350 350 349 351 353 353 352 351 350 351 352 352 352 352 351 351 352 351 351 350 348 347 345 342 341 342 338 331 327 325 323 322 322 322 322 322 321 321 321
355 356 356 357 357 357 357 358 358 357 355 352 348 346 345 344 343 343 344 346 346 347 348 348 348 349 350 350 350 349 348 348 347 346 348 351 351 351 352 353 352 354 354 353 353 354 354 353 352 350 349 351 351 351 350 349 348 347 343 342 344 341 333 327 325 324 323 322 322 322 322 322 322 322
355 355 355 356 356 357 357 358 358 358 357 355 352 348 345 344 343 344 344 345 346 346 348 348 349 349 349 350 349 349 349 347 346 348 351 352 353 352 353 354 354 354 354 354 355 356 355 353 352 350 350 352 352 352 351 349 349 348 345 343 344 342 335 327 325 324 323 322 322 322 324 325 324 324
356 355 355 355 356 356 356 357 357 357 358 358 356 354 351 348 345 344 344 345 347 348 348 348 348 349 349 350 350 350 350 349 350 352 353 353 353 354 354 354 355 355 354 354 355 356 356 355 353 351 351 352 353 352 351 350 348 347 346 345 344 341 333 326 325 325 323 322 322 323 324 326 326 326
356 355 355 355 355 356 356 356 356 357 357 358 358 357 357 355 352 348 345 345 346 348 349 350 350 349 349 349 349 350 351 352 353 354 354 353 354 356 355 354 355 355 355 355 356 356 356 355 354 352 351 352 352 351 350 350 348 347 346 344 342 338 331 325 325 325 324 323 323 323 324 325 326 327
357 356 356 356 356 356 357 357 357 357 357 358 358 358 358 358 358 356 353 350 348 347 349 350 351 351 350 350 350 350 352 353 353 354 355 355 356 356 356 355 356 356 356 356 357 357 356 355 354 353 352 352 351 349 348 348 347 347 346 342 339 336 330 325 325 325 324 324 324 324 324 326 327 326
357 356 356 357 356 356 357 357 358 358 358 358 358 359 358 358 359 359 359 357 354 351 349 349 351 352 352 352 352 353 354 355 355 355 355 355 356 356 356 355 356 356 356 356 356 356 355 355 354 354 353 352 350 348 347 347 347 347 346 342 339 336 329 324 324 325 325 324 325 326 326 327 327 327
357 357 356 356 357 357 357 357 357 358 359 359 359 359 359 359 359 359 359 359 358 357 354 351 351 352 352 352 353 355 356 355 355 355 356 355 356 356 356 355 355 356 356 356 355 355 355 355 355 354 353 352 351 350 349 348 348 347 345 343 339 334 328 326 326 327 327 328 327 327 327 327 327 327
356 356 356 356 357 357 357 358 358 358 359 359 359 359 360 360 360 359 359 359 360 359 357 355 353 353 353 353 353 355 355 354 354 356 356 356 356 356 356 356 355 356 356 356 355 355 355 354 354 354 353 353 353 352 350 349 349 346 343 340 337 331 329 329 329 328 328 329 329 329 330 329 329 328
356 356 355 355 356 356 357 358 359 359 359 359 359 359 360 360 360 360 360 360 360 359 359 358 355 353 353 354 354 355 355 354 355 355 355 355 356 356 355 355 355 355 355 355 355 354 354 354 353 353 352 353 354 352 349 347 346 342 337 336 333 328 326 328 329 328 329 330 329 329 329 329 328 328
356 356 355 355 356 356 357 358 359 359 359 359 359 360 360 360 361 361 360 359 359 359 359 359 359 356 354 354 355 355 355 355 355 355 355 355 356 355 355 355 355 355 355 355 354 354 354 354 353 351 352 353 353 352 349 347 343 339 335 333 330 326 325 326 327 327 327 328 328 329 329 328 328 328
357 357 357 356 357 357 357 357 358 358 359 359 360 361 361 361 362 362 361 360 360 358 358 359 360 358 357 356 355 355 355 355 355 355 355 356 355 355 355 355 355 355 355 354 354 354 354 353 352 351 351 352 352 351 349 344 339 336 334 332 331 329 328 326 325 325 325 326 326 327 327 328 328 327
358 358 358 358 358 357 357 357 358 358 358 359 360 361 361 361 361 360 360 359 359 358 357 357 357 357 356 356 356 355 355 356 355 355 356 355 355 355 355 356 355 355 354 354 354 352 352 352 352 351 351 350 348 347 345 341 336 334 333 332 332 332 330 328 326 325 325 325 326 326 326 326 326 326
358 358 359 359 359 359 359 359 359 359 359 359 360 360 360 361 360 360 360 360 358 357 357 356 356 356 356 356 356 356 356 356 355 356 356 355 354 355 355 355 355 354 353 353 351 348 349 351 352 351 350 347 343 341 340 338 336 334 332 331 333 333 332 330 328 327 326 326 326 326 327 327 326 326
Wind_Speed
4 4 4 4 4 5 5 4 3 5 5 5 4 3 1 1 1 1 2 2 2 1 1 2 6 7 5 5 6 7 9 10 12 14 14 14 16 17 18 19 21 22 23 23 23 22 19 18 18 18 16 15 17 20 23 25 24 23 21 19 17 18 19 18 17 16 17 17 17 17 17 16 15 14
5 5 5 5 4 5 5 4 4 5 4 4 5 4 4 3 2 3 3 3 2 1 1 1 4 7 5 4 5 7 9 11 12 14 15 14 16 17 18 18 20 22 22 23 23 21 18 17 18 19 17 17 19 22 24 25 24 23 21 19 18 19 19 18 17 17 18 19 19 18 17 17 16 15
6 6 6 6 5 5 5 5 5 6 5 5 5 6 6 5 4 5 5 5 4 2 3 3 3 6 6 5 5 6 9 11 12 14 15 15 16 18 20 20 19 20 22 23 23 22 18 17 18 19 18 19 21 23 24 25 25 23 21 19 19 20 19 19 19 19 20 21 21 20 18 17 16 16
7 7 6 6 5 5 5 5 6 6 6 6 6 7 7 7 7 6 6 6 6 4 5 5 4 5 7 7 8 8 8 11 13 13 14 15 15 16 19 22 20 19 21 23 23 22 18 17 18 19 19 19 21 22 24 25 25 23 21 20 20 20 20 20 20 21 23 24 23 22 20 17 16 16
9 8 7 7 7 7 7 6 6 7 7 7 6 7 7 7 7 8 7 7 7 6 6 5 5 6 7 7 9 9 8 10 12 13 13 14 14 13 14 19 21 20 20 21 22 21 19 17 18 19 19 19 20 22 23 25 24 23 21 20 20 20 21 21 22 23 25 26 26 25 21 18 16 16
10 9 8 8 8 8 8 8 8 7 7 7 7 8 7 7 7 8 8 8 8 8 7 6 6 7 8 7 9 10 9 10 12 12 11 11 13 15 13 13 19 20 20 20 20 20 18 17 17 19 19 18 19 21 23 24 23 22 20 19 20 21 22 22 23 25 26 28 28 27 23 19 17 16
11 10 10 9 9 9 10 10 9 8 9 9 9 9 9 9 8 9 9 9 9 9 8 8 7 7 9 9 10 11 11 12 12 11 12 11 12 16 13 11 17 21 20 19 19 18 18 17 17 18 19 19 19 20 22 23 23 22 20 19 19 21 22 23 24 25 27 28 29 28 24 20 18 17
12 11 11 11 10 10 11 11 10 10 10 10 10 10 10 10 10 10 11 10 10 11 11 10 9 10 11 11 11 11 11 12 13 12 13 13 12 15 13 10 15 21 21 19 18 17 17 17 17 18 18 19 19 20 21 23 22 22 21 19 20 21 22 23 24 25 26 27 28 27 24 21 19 18
13 12 12 12 11 11 12 12 11 10 11 11 10 10 10 11 11 11 12 12 12 13 13 13 12 12 13 12 12 13 12 13 14 14 14 15 14 15 13 9 12 20 22 21 19 18 17 17 17 17 18 18 19 20 21 22 22 22 21 20 20 21 22 23 24 24 25 26 26 26 24 21 20 19
14 14 14 13 13 13 13 12 12 11 12 12 12 12 12 12 12 12 13 13 14 14 14 14 14 13 13 14 14 15 15 14 14 14 15 14 14 15 14 11 11 14 17 20 22 20 18 18 17 17 18 19 19 20 20 21 21 21 21 21 21 21 23 23 23 24 24 24 24 24 23 21 20 19
15 15 15 15 15 16 15 15 14 13 13 13 13 14 13 13 14 13 13 14 14 14 14 13 13 12 13 14 15 15 17 16 15 16 15 13 12 14 16 16 14 11 13 17 19 20 21 21 18 17 17 18 19 20 20 20 21 21 21 21 21 22 23 23 23 23 23 23 23 23 22 21 20 19
16 16 16 16 16 17 17 17 16 15 15 15 15 15 15 15 15 14 13 14 15 15 14 13 13 13 14 15 16 16 16 16 15 14 14 15 15 14 15 16 16 15 13 13 14 17 19 20 20 19 19 19 19 20 20 20 20 21 21 21 21 21 22 23 23 22 23 22 22 21 21 21 20 19
19 19 18 17 16 18 19 18 18 17 17 17 16 16 17 17 17 17 16 16 17 17 16 15 15 15 15 15 15 14 13 13 13 14 15 17 17 14 13 14 15 16 13 10 10 14 16 16 17 18 18 19 20 21 21 21 20 21 22 21 21 20 21 22 22 22 22 21 21 21 21 20 19 19
22 22 20 19 20 21 21 20 20 20 20 20 20 19 19 19 18 19 19 19 20 19 19 18 16 15 15 14 13 12 12 12 13 13 14 15 15 13 13 13 14 15 14 11 12 14 14 12 12 11 12 15 19 21 21 21 21 20 21 21 20 20 21 21 22 22 21 20 20 21 21 20 19 19
26 25 24 23 23 24 24 22 22 22 22 22 22 22 22 22 21 21 21 21 21 21 21 19 17 16 16 16 15 14 13 12 12 13 14 15 16 15 13 12 12 15 15 13 16 17 15 14 13 10 9 11 15 19 19 19 19 19 19 21 20 20 20 21 21 21 21 20 20 20 21 20 19 18
30 29 28 27 24 24 26 26 24 23 23 23 23 23 23 24 25 25 24 24 23 23 22 21 19 18 18 18 18 17 15 13 14 16 17 17 18 18 16 14 12 14 16 16 18 17 15 17 16 11 10 11 14 17 19 18 19 18 19 19 19 20 20 20 20 21 20 20 20 20 20 20 19 18
33 33 32 31 29 27 27 28 27 25 25 24 24 24 25 26 27 27 28 27 27 26 25 25 24 23 22 22 21 20 19 18 18 19 19 18 18 19 19 18 16 16 18 18 19 18 16 17 15 10 13 18 18 17 17 18 18 18 19 19 18 19 19 19 20 20 20 20 20 20 20 19 19 18
35 35 34 33 33 31 30 31 30 28 27 26 26 26 27 27 28 28 29 29 29 29 30 30 30 29 27 26 26 25 24 23 21 20 20 20 19 19 20 21 21 21 21 20 21 21 17 14 12 10 13 19 20 17 16 17 18 18 18 19 18 18 18 18 19 19 20 19 19 19 19 19 18 17
37 37 36 35 35 34 33 33 32 31 29 28 28 28 29 28 29 29 30 30 30 30 31 32 31 30 30 28 27 26 25 24 22 20 19 20 20 20 21 22 23 23 22 21 21 22 17 12 12 11 11 17 21 20 17 16 17 18 18 18 18 18 17 18 18 18 19 19 18 18 18 18 18 17
39 39 38 38 37 37 36 35 34 32 31 30 30 30 31 30 30 30 31 31 31 31 31 32 31 30 29 28 29 27 24 24 23 21 20 20 21 21 22 23 23 20 19 18 19 22 19 13 12 11 10 16 19 17 17 17 16 17 19 18 18 17 17 17 17 17 18 18 18 17 17 17 17 16
41 41 40 39 39 39 39 37 36 34 32 32 32 32 32 31 31 31 30 29 31 32 31 31 31 31 30 30 30 30 28 27 26 24 24 24 23 22 21 22 20 17 16 16 16 19 19 15 13 11 11 16 16 12 14 18 17 16 19 19 18 18 17 16 16 17 17 17 16 16 16 15 16 15
42 43 42 41 41 40 40 39 38 36 34 34 34 33 32 33 33 34 30 26 27 30 31 30 30 30 31 32 31 32 31 30 28 27 28 28 25 24 22 21 20 19 18 16 17 19 19 16 13 11 10 15 16 13 14 18 18 17 18 19 18 18 16 16 16 15 16 16 15 15 15 14 14 14
42 43 44 43 43 41 40 40 39 38 36 35 35 34 33 34 35 35 32 27 25 25 26 29 30 30 30 31 32 33 32 31 30 30 29 29 27 26 25 23 21 20 18 16 17 19 18 14 13 12 11 12 14 15 17 20 21 19 19 19 19 18 16 15 15 15 14 15 14 14 13 13 13 13
41 42 44 44 44 42 41 40 40 39 37 36 36 35 35 36 36 34 31 28 26 24 23 25 27 28 28 28 30 32 33 33 32 32 31 30 28 28 27 25 22 21 18 17 19 20 18 14 13 13 13 11 12 15 20 22 23 22 22 21 19 18 17 16 15 14 14 14 14 13 12 12 12 12
39 41 43 44 44 42 41 40 40 40 39 37 36 37 38 38 37 34 31 28 25 24 24 25 26 27 27 27 28 30 32 33 33 32 32 31 29 28 28 25 24 24 22 21 23 23 20 18 16 15 15 14 13 14 18 22 24 22 19 19 19 18 18 17 16 15 14 14 13 12 11 11 11 11
38 39 41 42 43 42 41 40 39 40 39 38 38 39 39 38 37 35 34 30 26 24 24 24 25 25 26 26 26 27 28 30 30 31 31 30 29 29 28 26 26 26 24 23 25 24 22 21 20 17 16 16 15 14 16 20 22 18 14 16 17 17 16 16 15 15 15 14 14 12 11 10 10 10
37 38 38 39 40 41 41 40 39 38 38 38 39 39 39 38 37 35 33 32 31 29 27 26 25 25 24 24 24 24 25 26 26 27 28 28 26 26 27 27 28 28 27 26 26 26 25 24 23 21 20 20 18 16 16 17 17 17 17 17 17 17 15 14 14 14 14 14 14 13 11 10 9 9
36 36 36 36 37 38 39 38 37 36 36 37 39 39 38 37 36 34 34 33 33 34 34 32 31 30 28 26 25 25 25 25 25 25 25 24 23 24 25 26 27 28 28 28 27 27 27 26 25 24 23 22 20 19 18 16 16 18 18 15 14 15 15 15 15 15 14 14 13 12 11 10 10 9
36 35 35 34 35 35 35 34 34 34 35 36 37 38 37 37 35 35 35 35 36 37 37 36 35 35 33 32 31 28 25 24 25 24 24 24 24 25 25 26 26 26 27 28 28 28 29 29 28 25 23 21 21 20 19 18 17 17 16 14 12 13 16 17 16 15 14 13 12 11 9 9 9 10
35 35 35 34 34 34 33 32 32 33 34 35 36 37 37 37 37 37 38 37 38 40 39 38 37 36 34 33 32 29 26 27 27 26 26 26 26 26 27 27 26 26 27 27 28 29 28 28 28 26 23 21 21 20 20 20 20 19 19 18 15 13 17 20 17 15 15 14 12 11 10 9 8 8
35 35 35 34 34 33 33 33 33 33 34 35 37 38 39 39 40 40 39 39 40 40 40 39 38 36 34 32 30 29 29 30 29 28 28 28 28 28 28 26 25 27 27 27 26 26 25 25 24 23 22 21 21 20 19 19 21 19 19 21 20 17 18 20 18 16 15 13 12 12 11 9 9 8
33 33 34 34 34 33 34 34 35 36 37 39 40 41 41 41 42 41 40 40 41 41 40 39 38 36 34 32 32 31 31 31 30 29 29 29 29 29 28 26 26 26 25 24 23 22 22 22 23 23 23 22 22 22 19 18 20 19 19 23 25 22 20 21 20 18 17 14 12 12 12 10 9 8
28 30 32 34 34 35 36 37 38 39 40 41 42 43 43 43 43 43 43 43 44 43 42 40 39 37 35 34 34 33 33 33 32 30 30 30 30 29 27 26 27 25 22 21 21 20 21 24 25 26 26 25 25 26 24 22 24 25 25 27 30 27 23 22 20 19 18 15 12 12 12 11 10 9
25 28 32 34 36 37 38 39 41 42 42 42 43 44 45 46 45 45 45 46 46 45 43 42 41 39 38 37 36 34 34 35 34 32 31 31 31 31 28 25 23 23 23 22 20 20 23 25 24 26 29 30 30 30 28 25 27 29 30 30 30 29 26 22 20 20 19 15 12 12 11 10 11 12
26 28 31 35 37 38 39 40 41 40 39 40 42 42 42 45 47 47 47 46 45 44 44 44 43 42 40 39 39 37 37 37 35 32 31 31 30 28 25 23 22 22 24 23 19 20 23 23 22 24 29 31 31 32 31 29 29 30 31 30 30 30 28 23 21 22 20 16 15 14 12 10 10 12
28 30 32 35 36 37 37 39 40 38 37 36 37 36 36 38 42 45 47 47 45 43 43 42 42 43 42 41 41 40 39 38 36 32 30 31 29 25 24 25 24 23 24 24 21 21 25 27 26 27 28 28 30 32 33 32 31 31 32 31 30 30 27 23 22 22 20 17 17 16 14 12 10 10
32 32 31 32 34 33 33 34 34 34 34 34 33 33 33 33 33 35 38 42 45 45 43 41 41 42 42 42 42 41 40 38 36 33 29 28 28 27 27 26 25 24 25 25 23 24 29 31 32 31 29 26 26 27 27 27 29 32 33 32 30 30 27 25 25 24 21 19 17 16 14 13 11 11
35 33 29 27 29 31 32 32 32 30 31 31 31 31 32 33 31 29 28 32 37 41 44 43 42 41 41 41 40 38 36 34 32 30 27 26 28 31 30 27 26 26 25 25 26 28 31 34 35 35 30 24 23 24 25 26 30 34 34 33 32 30 28 27 27 25 21 19 18 16 14 13 13 14
37 35 29 25 26 28 29 31 32 31 29 29 29 30 30 31 32 31 30 29 30 33 38 43 44 42 42 43 39 35 33 32 30 28 27 26 28 30 28 26 26 25 24 26 28 29 31 35 37 37 32 27 27 29 30 31 34 35 33 31 30 27 26 26 25 22 19 17 16 14 13 12 12 14
41 40 36 30 27 27 27 29 31 32 31 31 31 31 31 31 31 32 32 32 32 33 36 40 43 43 42 42 40 35 32 30 29 28 28 28 28 29 28 26 25 23 22 25 29 30 33 37 39 38 34 31 32 34 33 34 35 33 28 27 28 27 25 24 23 21 18 16 15 14 12 12 11 12
34 38 40 39 36 33 32 30 30 33 35 35 34 33 33 33 33 33 33 33 33 34 33 35 40 43 43 41 37 31 29 29 30 29 28 28 29 31 32 30 27 24 22 25 30 34 35 35 36 35 32 31 32 34 35 35 32 26 22 23 27 28 28 25 23 21 18 16 14 14 13 13 13 13
25 28 32 35 34 33 33 31 30 33 35 35 34 35 35 34 33 33 35 35 35 36 34 32 33 37 40 38 34 30 28 30 31 29 27 26 27 29 33 34 33 29 26 29 34 33 29 28 30 30 30 30 32 35 37 35 29 23 20 20 22 24 26 27 25 21 19 18 16 14 13 12 12 12
26 26 26 27 27 28 31 34 34 35 36 34 33 34 35 35 32 32 33 33 33 34 34 31 29 30 32 32 32 31 29 28 26 25 26 26 26 25 26 31 33 31 29 31 32 27 23 26 30 29 28 31 35 37 35 31 28 25 21 18 18 20 22 25 24 22 20 19 17 15 14 13 13 14
28 28 29 28 26 25 27 31 33 35 36 36 35 34 34 35 34 33 33 32 31 31 33 32 30 30 29 30 31 32 30 27 26 24 24 26 28 27 25 26 28 29 29 32 31 26 24 29 33 31 29 31 34 35 32 27 27 27 23 17 17 19 20 21 23 22 20 19 17 16 16 17 17 18
25 27 30 30 29 26 27 28 29 30 31 33 33 34 34 34 34 35 35 35 34 34 35 35 33 33 33 34 35 35 34 33 33 31 28 27 27 28 28 27 27 29 32 33 31 27 27 32 34 33 30 28 29 31 30 26 24 24 22 18 18 19 17 16 19 19 18 18 17 16 16 17 18 19
Wind_Direction
213 222 232 225 219 229 230 224 236 235 226 224 233 240 236 250 292 272 228 208 202 195 209 275 296 297 302 318 320 323 323 326 336 340 338 331 329 335 342 346 350 351 353 354 355 356 354 350 349 353 354 353 359 6 6 5 5 5 5 2 359 358 357 359 5 11 16 20 20 17 14 12 6 360
214 213 219 228 227 233 236 225 238 248 237 228 232 234 235 243 268 277 281 270 238 250 294 285 300 305 308 320 322 318 318 323 331 332 329 327 325 328 334 342 347 350 353 354 355 356 353 349 350 354 355 354 360 4 2 1 2 3 4 2 359 357 357 360 6 11 15 17 19 19 17 14 10 4
232 222 217 224 227 233 236 225 232 247 246 234 229 232 240 246 254 265 279 275 255 261 291 281 298 308 305 306 307 308 314 317 321 324 322 321 323 326 331 338 346 350 351 352 353 353 352 349 350 354 354 355 359 0 359 359 359 0 2 1 359 357 356 359 4 9 12 14 16 17 17 14 11 8
240 237 230 233 235 237 241 239 241 250 253 244 234 236 243 249 257 261 265 271 275 277 272 274 287 292 295 304 305 307 312 311 314 318 317 318 324 329 330 332 340 348 350 351 351 351 351 349 350 354 353 354 357 358 358 358 357 358 358 357 357 356 355 357 2 7 9 10 11 13 15 14 11 10
237 243 242 242 245 246 246 245 246 251 256 253 247 244 245 247 253 257 256 263 275 280 271 267 271 276 285 296 300 304 306 303 307 311 311 316 320 324 327 324 330 343 348 348 349 349 348 348 349 353 352 352 355 358 359 358 355 354 354 354 355 355 354 356 360 4 6 7 7 8 12 14 12 11
236 242 244 246 249 254 255 253 250 249 252 252 250 251 251 248 247 253 256 256 266 277 275 268 270 278 285 289 295 301 300 298 301 303 307 312 312 318 326 317 319 335 344 344 346 347 346 345 347 351 351 351 354 358 0 359 355 352 350 351 353 353 353 355 358 2 4 5 4 4 9 13 14 12
239 242 245 247 248 250 254 256 253 248 248 247 246 248 249 248 245 249 255 255 261 271 273 271 271 273 280 286 294 299 301 302 303 302 304 309 308 314 327 318 311 325 338 339 342 344 343 343 344 347 349 350 353 357 360 360 356 351 348 348 350 352 353 354 358 1 3 3 1 2 7 13 16 13
239 242 244 246 244 244 248 252 251 248 248 250 251 252 255 257 253 250 253 256 260 267 272 274 273 273 278 286 293 297 300 301 303 302 301 306 306 309 325 324 304 314 327 331 336 342 341 339 341 344 346 348 352 355 357 359 357 351 348 346 347 351 352 353 358 0 2 2 0 1 6 13 16 13
239 241 244 245 244 245 248 252 252 249 249 251 252 252 254 258 260 257 259 260 261 267 273 275 278 282 286 289 290 293 296 297 300 302 302 305 304 304 316 320 301 310 320 324 330 338 337 335 337 339 343 347 350 352 353 355 355 352 348 346 345 348 351 353 357 359 1 0 359 0 5 12 15 12
243 245 247 248 248 248 248 250 250 249 251 253 252 252 253 256 259 261 263 265 265 268 273 276 280 284 286 287 289 292 294 293 293 295 298 301 301 301 306 310 309 315 318 319 324 330 331 333 334 334 339 344 347 349 348 349 352 352 349 346 345 346 349 352 356 359 360 359 358 1 5 9 13 13
246 248 250 252 252 252 252 251 251 251 254 256 255 256 258 259 260 262 262 265 267 268 270 273 275 276 277 280 285 290 292 293 293 294 294 292 290 294 300 303 307 307 304 309 317 323 326 328 327 328 335 342 345 345 344 345 348 350 350 347 345 346 347 350 354 358 358 357 357 0 5 8 11 12
249 250 251 253 253 254 255 254 253 252 253 255 256 258 259 259 261 260 255 257 263 264 265 266 267 268 270 275 281 285 288 292 293 292 289 287 287 289 293 298 302 303 305 309 312 315 321 322 322 325 332 339 342 340 339 341 343 347 348 346 344 344 344 346 352 356 357 356 356 359 4 7 9 11
253 253 252 252 251 253 255 255 254 254 253 254 254 255 257 258 259 260 257 256 261 263 264 265 266 269 270 273 277 277 276 280 284 286 288 289 289 288 288 293 297 299 307 312 302 306 314 316 320 325 326 333 338 335 334 338 340 342 344 343 342 341 341 343 348 354 356 356 356 358 2 6 8 10
255 256 256 254 254 256 257 255 254 253 252 254 254 254 256 256 256 258 258 258 260 263 265 265 264 264 264 266 267 266 269 274 278 284 287 286 285 285 287 292 295 296 302 304 299 306 309 301 305 314 310 319 331 331 331 334 335 337 338 338 338 337 337 340 346 352 356 357 357 357 0 5 7 8
255 256 258 259 261 263 261 257 255 253 252 253 254 254 255 255 254 254 255 257 258 260 262 263 261 260 261 263 265 266 270 272 269 271 277 280 281 283 285 288 290 293 295 297 303 312 312 299 299 299 287 302 321 323 325 327 327 330 332 332 332 332 333 338 344 350 354 356 359 358 359 4 7 7
255 257 258 259 260 262 263 262 259 256 254 253 253 254 255 255 255 254 254 255 256 257 259 259 258 259 260 263 267 268 268 267 264 267 274 277 278 279 281 282 283 287 289 293 300 308 308 303 304 300 286 296 312 317 320 321 321 325 327 327 327 326 328 335 342 348 354 355 358 359 359 3 7 8
256 256 257 258 257 258 262 265 264 261 257 255 253 253 253 254 255 256 255 255 255 256 257 257 259 261 262 265 269 271 271 271 270 271 272 273 275 277 279 280 279 282 288 294 298 299 300 301 301 295 291 298 306 315 317 315 316 320 321 322 323 321 324 332 339 346 353 355 356 358 359 3 7 8
256 256 256 256 257 258 259 262 263 263 262 259 257 255 254 254 255 256 257 257 257 257 256 256 259 262 264 267 272 274 275 276 277 275 270 268 270 272 274 277 278 280 286 290 291 291 294 291 283 280 286 292 301 314 316 312 313 315 315 316 318 319 322 329 337 344 351 354 354 355 358 3 7 7
254 255 255 255 256 256 257 258 260 261 262 262 261 259 258 258 258 258 258 259 259 259 260 261 262 264 266 268 271 273 274 274 277 276 270 268 269 270 272 275 277 281 286 287 287 289 291 281 270 275 279 281 293 309 314 309 308 310 311 313 315 317 320 326 334 342 349 352 352 352 357 2 5 7
252 253 253 254 255 255 256 256 257 258 260 260 260 260 260 261 261 261 262 263 263 262 263 264 265 265 265 265 268 270 269 268 270 270 269 269 269 270 274 276 277 278 279 280 282 287 290 283 270 270 268 271 283 300 308 308 307 306 308 310 311 314 318 323 331 340 347 349 348 350 356 1 5 7
251 251 251 252 253 254 255 255 255 255 256 257 257 257 258 259 260 260 261 263 266 266 264 264 265 266 265 264 265 268 267 265 264 263 265 267 267 269 272 273 274 272 268 266 268 274 282 283 275 269 264 270 277 280 290 302 308 304 303 306 307 310 314 320 328 337 344 345 344 347 353 1 5 4
250 251 251 251 251 251 253 254 254 254 253 253 254 254 255 256 258 259 258 257 262 268 268 266 263 263 264 264 265 266 266 266 263 260 262 266 266 265 266 266 267 269 268 262 255 260 271 278 275 269 261 272 282 276 275 296 307 302 298 301 302 305 310 316 324 333 338 339 340 343 350 359 4 3
250 251 252 251 251 250 251 252 252 253 252 251 251 252 253 254 256 259 259 254 253 258 265 269 268 265 263 262 263 263 264 263 261 259 261 263 261 260 261 262 262 265 268 264 256 258 267 272 269 265 260 269 282 280 277 289 298 297 295 296 296 300 307 313 319 326 330 332 334 339 346 355 0 1
250 251 251 252 251 250 250 250 251 251 251 250 250 250 250 252 255 258 258 255 251 249 251 258 266 268 266 263 261 261 260 260 260 260 260 260 259 258 259 258 256 257 260 261 260 263 268 269 263 260 257 258 269 276 279 286 291 292 294 296 294 298 305 308 312 318 322 325 329 335 343 351 356 360
250 250 251 251 251 250 249 248 249 250 250 249 248 248 249 252 256 256 254 252 251 252 250 250 254 259 262 262 262 261 260 259 260 261 260 259 257 256 256 254 252 255 257 258 263 269 271 269 264 256 252 253 259 266 274 283 287 287 288 290 291 297 303 306 307 312 316 318 321 329 339 347 353 357
250 250 250 251 251 250 249 248 247 247 249 249 247 247 249 252 254 253 252 250 248 249 251 252 252 251 253 254 255 256 257 258 260 262 262 260 257 255 255 251 249 253 258 259 264 268 269 267 265 257 251 253 254 251 259 275 283 280 272 277 283 289 295 298 300 305 309 312 317 325 334 343 350 355
251 251 252 252 252 252 250 249 247 246 247 247 247 247 248 250 250 250 250 249 246 244 244 245 245 245 245 245 244 245 247 249 252 256 261 263 262 259 255 252 251 254 257 258 261 263 264 264 264 261 258 256 253 251 256 264 267 265 267 274 280 283 286 287 289 295 300 305 312 318 324 334 345 352
250 252 253 254 255 254 253 252 252 250 248 247 246 247 247 247 248 247 246 245 244 242 242 242 242 243 242 242 241 242 244 246 246 250 255 260 262 261 259 257 256 257 257 257 258 260 260 260 261 262 263 260 253 254 261 258 252 257 263 262 261 270 278 282 284 287 290 296 303 311 320 330 338 345
248 250 252 254 256 257 257 256 256 253 250 247 245 245 244 244 244 243 243 243 241 241 241 241 242 243 243 245 247 248 247 247 248 249 252 254 256 258 260 260 259 258 258 257 257 257 257 258 259 258 259 257 252 253 259 255 249 248 245 234 232 250 266 275 279 280 281 285 291 299 310 320 328 336
250 250 251 253 256 258 258 257 256 254 251 248 246 243 242 241 241 241 241 240 240 240 242 241 242 244 245 247 252 253 249 246 247 248 250 253 254 257 260 261 260 259 258 258 259 258 256 256 258 258 254 250 249 253 254 251 247 243 237 232 229 238 258 269 272 271 273 275 279 286 293 301 312 325
251 251 251 251 253 254 256 255 254 253 251 248 245 242 239 237 237 238 239 240 241 241 243 244 245 246 247 249 252 253 251 249 248 249 250 252 254 257 259 259 259 260 260 261 261 259 254 251 254 256 251 243 245 253 251 243 242 241 238 241 242 242 253 263 265 264 265 266 268 276 282 288 297 308
256 257 256 256 254 253 252 252 252 251 249 247 244 242 239 237 236 237 238 240 242 243 244 245 246 247 248 249 250 252 253 253 253 253 254 254 254 255 254 252 255 258 260 261 261 257 251 247 246 248 247 242 243 248 244 236 239 238 235 245 253 252 250 255 258 258 259 258 259 266 270 275 283 295
265 261 258 257 255 252 250 249 249 249 249 248 247 245 242 239 237 237 238 239 241 243 244 245 246 246 246 248 249 252 255 257 257 257 256 254 254 254 252 251 253 254 254 256 255 249 245 246 245 245 245 242 240 243 241 238 243 243 239 247 256 256 251 249 248 248 252 253 251 256 263 269 273 279
269 263 257 254 253 251 251 250 249 249 249 250 250 249 247 244 241 239 239 240 241 243 244 245 246 246 247 248 250 251 253 256 258 258 255 254 253 253 251 250 250 250 251 253 250 244 246 250 248 244 243 240 239 243 244 242 244 245 244 249 256 257 253 245 237 239 248 251 246 244 249 257 265 272
267 261 256 254 253 252 252 251 250 250 250 250 250 250 249 249 247 244 242 242 243 245 247 248 247 247 247 249 250 251 252 254 255 255 255 255 253 250 247 245 245 247 250 251 244 240 244 246 242 241 241 239 239 244 248 246 242 242 245 248 250 251 250 241 231 236 244 245 242 241 240 243 254 263
263 259 258 257 255 254 253 251 250 250 250 249 249 249 248 249 251 251 249 247 247 247 249 251 251 251 250 250 251 252 253 253 252 250 249 252 251 246 243 244 244 245 250 250 243 237 240 240 238 239 240 237 237 242 247 245 240 239 243 246 244 243 242 235 227 230 237 237 238 239 238 238 241 247
258 258 257 257 255 253 252 251 250 250 250 249 249 248 247 247 249 252 255 256 254 253 252 252 253 254 254 254 254 254 254 254 252 249 245 245 246 246 245 244 244 245 248 249 243 238 239 240 239 241 241 234 231 237 242 243 240 238 238 239 237 237 237 232 226 227 230 230 231 233 235 238 242 243
255 255 253 252 253 254 253 251 250 249 249 249 249 249 249 249 248 247 251 256 257 257 256 255 254 255 255 255 254 253 252 251 249 246 243 240 240 243 245 245 245 245 246 245 242 239 239 240 240 242 239 229 224 230 233 235 241 241 236 232 233 235 235 231 228 227 226 225 225 227 231 233 239 246
249 252 252 250 249 251 253 252 251 249 248 248 249 249 249 250 250 248 248 251 253 255 257 257 256 255 255 255 253 250 247 246 243 241 241 240 239 242 244 244 246 246 243 243 243 239 236 238 241 243 239 232 233 239 238 238 245 248 239 230 229 230 228 225 224 222 219 218 220 227 238 246 250 255
248 250 252 251 249 249 250 252 253 254 253 252 252 252 250 251 252 253 252 251 251 254 257 258 257 255 254 254 252 247 244 244 243 242 243 243 242 243 243 242 244 244 240 240 243 239 235 238 244 246 246 244 243 244 243 244 247 247 240 231 228 224 219 217 216 214 213 215 219 226 238 250 258 266
250 251 251 253 254 254 253 253 255 258 259 258 257 257 257 258 258 257 257 256 254 255 257 257 256 255 254 252 249 244 240 242 244 244 245 245 244 246 245 243 243 243 239 238 241 243 243 245 246 246 249 251 246 241 239 240 237 231 227 227 224 216 213 214 215 212 211 213 217 224 232 241 249 257
247 250 253 254 255 254 254 254 254 256 258 258 258 259 260 262 261 261 263 263 260 257 258 256 255 255 254 250 245 240 240 243 246 247 246 244 244 247 247 246 246 244 240 241 246 248 248 247 244 243 247 248 244 239 238 236 227 213 210 218 217 212 214 219 219 217 216 217 220 224 230 241 250 252
247 248 252 255 255 254 254 255 256 256 257 257 257 257 258 259 259 260 264 266 265 264 263 259 252 251 252 251 247 245 244 244 244 246 248 246 244 243 245 250 253 249 241 242 247 246 240 240 244 248 249 244 240 238 236 229 215 202 198 205 213 217 219 219 219 222 225 227 230 233 235 241 249 254
253 251 252 254 254 255 255 256 257 259 259 257 256 256 256 258 260 260 261 263 266 267 267 264 258 254 254 255 254 251 248 247 246 246 248 249 249 246 245 250 255 251 245 244 243 238 235 241 248 254 253 244 237 233 226 214 205 201 197 197 210 220 220 216 217 221 228 233 240 250 254 256 259 262
252 251 250 250 250 252 254 255 256 256 256 257 257 256 256 259 263 264 262 262 263 263 262 260 257 253 251 253 254 252 250 251 253 252 250 249 249 251 251 251 249 247 248 246 240 234 238 246 251 254 251 239 227 221 213 205 203 205 200 197 204 211 214 218 221 225 233 243 250 255 256 258 263 268